星链-5395 (STARLINK-5395 )

导读

STARLINK-5395是美国SpaceX公司星链星座的一员,于2022年12月28日发射。星链项目旨在低地球轨道构建全球卫星互联网,为偏远缺基础设施区域提供高速低延迟宽带服务。该卫星重约297千克,运行在548公里高度轨道,目前已在轨运行超3年,为星链全球网络覆盖提供支撑,推动了全球互联网接入的普及。

基本信息
目录编号:
54831
目录名称:
STARLINK-5395
国际标识:
2022-177M
轨道中心:
EARTH
卫星名称:
星链-5395
卫星全名:
星链-5395 (STARLINK-5395 )
卫星状态:
在轨 (已飞行1267 天)
发射日期:
2022-12-28 UTC
国别 :
美国 (US)
星等 :
--
轨道信息
数据来源 国际轨道数据
星历时间: 2026-06-17T09:51:29+0800
7小时前
查看轨道信息
半长轴: 6861.181km
偏心率: 0.0001679
轨道倾角: 43.008°
近地点辐角 274.828°
升交点赤经 294.752°
平近点角 85.238°
近地点: 481.892km
远地点: 484.196km
周期: 94.267分钟
每日圈数: 15.275818
详细信息
固有亮度:
5
最大亮度:
2.5
卫星平台:
Starlink v1.5
覆盖范围:
全球
运营商:
太空探索技术公司
运营商所在国:
美国
制造商(研发单位):
太空探索技术公司
制造商所在国:
美国
使用方式:
暂无
卫星简介
星链(Starlink)计划是由太空探索技术公司(SpaceX)提出的一个巨型低轨卫星互联网星座项目,计划在2019年至2024年间在太空搭建由约1.2万颗卫星组成的“星链”网络,其中1584颗将部署在地球上空550千米处的近地轨道,并从2020年开始工作。该卫星仍在工作。
2D轨道图
3D轨道图
轨道高度分析图
轨道倾角分析图
轨道综合分析图
查看轨道综合分析图